Location: Doux
(49.5045°N, 4.4321°E)
Time: 07:00:52
(UTC+00:00)

Cosmos 1707 - Pass Details

Date: 23 May 2024
Orbit: 473 x 485 km, 82.5° (Epoch: 19 June)

Event Time Altitude Azimuth Distance (km) Brightness Sun altitude
Exits shadow 00:27:49 19° 266° (W) 1,200 4.4 -19.0°
Maximum altitude 00:28:51 22° 290° (WNW) 1,116 4.4 -19.0°
Drops below altitude 10° 00:31:46 10° 343° (NNW) 1,679 6.2 -18.9°
Sets 00:34:14 0° 359° (N) 2,562 7.7 -18.8°
